Theta_e
316 317 321 324 326 325 327 327 324 340 344 343 343 346 346 346 347 350 347 349 342 340 329 323 323 331 335 334 330 326 324 325 324 324 324 323 322 323 324 325 332 334 336 338 339 338 335 335 335
315 320 324 321 325 327 326 327 327 343 343 344 344 343 345 345 343 349 351 346 341 339 331 323 323 325 328 326 324 323 323 324 324 324 324 323 322 323 325 326 330 334 337 339 339 338 336 335 335
316 321 323 325 324 326 326 327 327 341 342 345 345 343 344 344 340 349 349 344 342 340 334 323 323 324 324 324 324 323 324 324 324 324 323 323 322 322 325 327 329 333 336 338 338 339 337 335 334
320 322 318 324 324 325 324 324 326 342 343 343 343 344 341 341 347 347 347 345 340 340 334 325 323 324 324 324 324 324 324 324 324 323 323 323 323 322 325 326 328 331 335 337 339 339 338 337 337
322 320 321 322 322 322 323 321 320 334 344 345 344 345 346 343 349 347 347 349 342 339 334 326 324 324 324 324 324 324 324 324 324 323 323 323 323 323 322 325 327 328 333 336 338 339 338 337 338
321 318 320 320 321 322 321 319 318 327 341 346 344 344 341 342 345 347 349 348 342 337 335 330 326 324 324 324 324 324 324 324 324 324 323 323 323 323 323 323 325 326 328 333 336 339 339 338 338
322 321 321 320 322 322 320 318 320 325 336 345 343 344 344 341 342 351 354 354 340 336 335 334 333 327 325 325 324 324 325 325 324 324 324 324 324 323 322 323 323 326 327 331 334 336 339 338 338
319 320 320 321 322 321 319 319 340 334 330 342 343 343 342 339 343 349 352 353 342 335 335 336 335 334 331 327 325 326 328 330 330 329 327 324 324 324 323 322 323 323 326 328 332 334 338 339 338
319 321 321 321 320 321 319 321 320 332 344 341 343 349 349 337 347 350 348 350 339 335 334 336 336 337 336 333 329 327 329 332 333 334 333 331 327 324 324 324 322 323 323 327 330 334 337 340 339
321 321 320 318 318 321 320 319 320 330 343 345 348 345 349 339 350 351 346 341 336 334 333 333 335 336 337 337 335 332 331 332 333 335 335 334 333 329 325 325 324 322 322 323 328 332 336 339 341
317 321 320 320 319 318 320 321 318 333 345 345 345 351 347 340 347 352 347 343 338 334 332 330 329 331 333 334 335 335 335 334 334 334 335 335 334 333 330 326 325 325 322 323 323 327 332 340 339
319 318 318 319 317 318 320 319 321 333 344 342 335 347 346 344 347 350 348 346 341 335 332 329 325 325 326 329 331 332 333 335 334 334 334 334 335 333 332 330 326 325 326 323 322 323 325 332 336
319 318 317 318 318 317 317 319 320 321 324 322 323 336 344 346 347 343 345 343 341 336 333 330 327 324 323 325 327 330 331 333 334 333 334 333 333 332 332 331 329 325 327 328 331 329 324 324 329
318 318 320 319 321 318 318 318 317 321 321 321 323 341 344 345 345 340 338 344 337 337 337 333 331 329 325 324 325 327 329 330 331 332 332 332 331 331 331 330 330 328 336 337 338 339 335 327 324
319 321 321 321 321 321 318 320 321 321 321 321 322 325 344 346 342 341 337 339 345 345 343 344 342 337 330 328 328 328 329 330 331 333 333 333 332 331 331 330 329 328 336 340 340 340 338 331 324
321 320 322 321 320 319 320 323 323 320 319 321 326 322 323 340 344 342 342 339 340 338 342 345 344 345 343 334 331 332 333 333 333 336 338 335 332 333 334 334 329 328 333 336 340 340 338 337 333
319 321 321 321 319 321 321 324 323 320 320 320 321 325 324 324 330 342 346 344 342 341 338 341 344 343 345 341 332 332 334 335 334 336 339 338 332 336 339 338 332 331 335 334 338 340 338 339 338
321 321 322 323 321 322 322 323 322 320 318 319 319 319 319 320 322 329 341 346 343 343 342 340 341 344 344 345 336 334 334 338 341 339 340 341 336 338 342 340 337 336 338 338 334 340 339 339 338
320 321 322 323 322 323 323 322 322 320 321 321 321 321 322 319 319 320 323 342 344 339 335 336 339 341 340 345 344 340 336 337 341 341 340 343 341 342 343 338 338 340 340 337 337 337 338 337 338
321 322 324 323 321 323 322 323 321 322 323 323 323 323 322 323 323 323 321 321 323 330 333 328 328 330 334 337 338 341 339 338 340 342 340 339 339 333 336 334 337 340 340 336 338 335 338 338 337
322 323 323 323 320 320 322 324 322 323 323 322 322 322 322 322 323 324 324 324 321 320 322 324 324 327 331 334 338 336 341 339 337 332 335 335 321 327 333 335 337 338 335 334 333 335 336 338 336
323 322 322 321 322 325 321 324 323 324 323 323 322 322 321 321 322 322 324 325 325 324 322 321 322 324 330 331 338 332 334 335 332 330 329 328 324 332 332 333 333 335 334 333 336 335 339 332 323
323 321 322 322 324 323 322 324 324 323 324 323 320 319 319 321 321 322 321 323 326 325 324 323 322 321 322 330 330 336 334 331 335 330 335 325 328 328 330 332 328 332 332 338 338 335 327 325 323
320 321 321 320 322 325 325 324 324 325 323 321 318 317 317 318 319 321 320 319 321 324 326 326 322 319 319 321 334 334 335 331 330 332 336 324 327 325 330 327 322 330 333 337 338 327 324 324 322
321 324 325 326 325 326 323 323 326 321 320 318 317 317 317 318 319 320 320 318 318 318 319 324 327 322 328 333 326 338 340 341 330 329 333 324 326 325 327 324 319 323 325 335 330 324 323 320 315
323 325 325 326 326 325 322 326 325 318 316 316 316 316 316 316 318 320 319 320 320 320 321 320 325 329 327 335 335 338 340 341 336 337 334 327 323 323 325 323 321 316 319 321 321 322 322 317 315
322 324 321 324 322 325 325 322 319 316 316 315 316 315 315 315 316 318 319 318 319 320 322 323 324 328 330 331 333 337 340 342 341 340 340 334 323 321 327 324 325 321 317 318 320 322 322 322 318
320 318 323 322 326 326 324 325 326 318 316 316 315 315 314 314 314 314 316 317 319 319 320 321 323 322 323 328 332 334 337 341 341 341 339 340 327 324 323 329 325 327 322 319 321 322 323 324 324
318 319 318 319 321 325 325 324 319 316 316 316 314 313 313 313 314 314 314 313 317 319 319 320 322 321 320 320 321 322 330 334 339 340 338 338 337 330 328 327 331 326 327 325 322 323 324 325 325
312 315 316 321 323 320 322 323 315 315 315 315 313 312 312 312 313 314 314 314 313 316 319 320 321 322 322 321 321 322 321 323 331 333 337 337 337 335 327 331 332 335 328 328 326 324 326 329 328
Wind_Speed
4 4 2 1 3 2 2 3 3 2 4 2 8 4 5 1 2 1 5 28 27 26 25 24 23 23 22 19 17 16 16 15 14 14 13 12 12 12 11 12 12 11 11 10 10 10 12 12 14
5 5 4 1 2 3 2 2 6 2 3 4 5 1 2 1 3 2 16 30 28 27 26 26 24 23 21 19 18 17 16 16 15 14 13 12 11 11 10 10 10 10 9 9 10 9 10 11 12
6 5 2 2 1 3 2 3 4 3 5 8 9 4 2 1 4 11 22 27 30 29 27 26 25 23 21 19 18 17 17 15 15 13 13 11 10 10 10 9 8 8 7 8 8 8 9 10 11
6 4 3 3 3 3 3 3 5 2 5 7 5 3 2 5 13 15 20 20 26 28 26 25 24 23 21 20 19 18 16 15 14 13 12 12 11 10 10 9 8 7 7 7 8 6 8 8 9
6 2 2 2 3 3 6 6 5 7 3 7 5 1 1 7 15 15 19 20 28 28 27 25 23 22 21 19 18 17 16 14 13 13 13 11 10 10 10 9 8 7 6 7 7 6 5 6 6
3 2 3 5 3 3 6 6 7 11 7 5 4 2 2 9 13 14 22 20 27 27 26 25 23 22 21 20 18 17 16 15 13 12 11 10 9 8 8 7 7 6 6 6 6 5 3 3 4
3 2 3 4 3 2 4 10 4 7 11 6 1 2 1 13 14 15 20 22 27 26 26 26 25 23 21 20 19 18 17 15 14 12 11 10 9 8 7 8 7 7 6 6 6 5 4 2 2
4 2 5 3 4 2 5 7 5 4 8 4 6 3 0 13 17 17 18 23 27 27 28 28 26 24 22 21 20 18 17 15 13 12 10 9 9 8 8 8 8 8 6 6 6 7 5 4 2
4 2 4 4 4 1 5 9 3 3 2 7 6 3 4 14 22 22 23 27 29 28 28 27 26 24 24 23 21 20 18 15 15 13 11 10 10 10 9 8 7 7 7 7 7 8 7 6 6
2 3 5 2 2 6 13 6 12 2 4 6 4 12 6 21 23 25 25 27 26 27 28 28 29 28 26 24 23 22 21 20 19 16 14 14 11 11 10 10 9 8 8 8 8 8 9 9 7
2 2 3 3 8 8 10 9 2 1 4 7 8 9 8 23 24 25 24 25 27 26 27 27 27 27 26 25 24 24 23 22 21 18 17 15 14 13 13 12 11 10 10 9 9 9 10 10 9
3 5 4 3 4 3 6 9 5 5 2 5 6 9 13 24 24 23 23 23 26 24 24 24 24 24 23 24 24 25 24 24 23 20 19 18 16 15 13 12 12 11 11 11 10 10 10 11 11
5 2 5 7 10 8 6 10 4 7 7 4 5 6 16 23 21 17 20 20 23 24 24 24 23 22 22 23 25 25 25 23 22 19 19 18 17 16 13 13 13 13 13 11 10 9 10 11 13
5 4 6 6 7 4 4 2 6 10 10 7 6 10 17 25 22 18 20 23 24 23 24 24 23 23 23 24 24 23 23 22 20 19 18 18 17 16 14 14 14 14 13 11 9 8 9 13 14
1 4 5 7 4 3 8 4 8 8 10 13 11 11 16 24 26 20 19 23 23 23 25 23 23 22 23 23 21 22 22 22 20 18 18 19 18 17 15 15 15 16 15 13 13 11 10 10 13
2 2 5 2 3 1 5 7 8 7 8 14 14 13 14 20 28 28 23 22 27 26 26 25 23 24 25 27 26 24 23 22 23 20 19 20 19 18 15 16 16 15 14 15 17 14 14 12 11
2 3 3 3 1 1 4 5 4 4 9 16 17 15 14 15 18 25 28 28 26 27 27 27 27 29 26 28 28 27 25 23 25 21 20 20 20 19 15 17 17 15 14 12 17 17 14 14 13
4 3 2 4 3 2 3 10 5 9 5 6 6 6 9 13 13 17 25 28 29 30 31 30 30 29 30 28 29 29 29 23 21 24 21 20 21 20 17 19 17 19 15 15 17 16 15 14 12
5 3 6 8 6 4 5 5 8 12 16 15 17 15 12 7 9 14 21 30 32 33 34 34 33 33 31 31 31 31 35 34 25 23 22 21 23 21 19 18 19 19 17 17 14 13 13 13 10
6 6 8 8 5 8 4 2 9 13 15 16 17 18 15 16 15 9 8 22 31 34 36 36 35 33 34 33 31 35 37 34 30 26 25 25 22 23 20 19 17 18 18 17 17 14 13 13 12
7 7 3 4 4 2 5 4 7 10 15 17 20 17 18 19 20 22 18 9 14 28 34 37 39 37 37 37 37 39 37 33 28 28 26 25 22 22 20 18 16 17 17 17 16 16 14 12 11
8 9 5 3 6 6 3 5 5 8 10 14 16 19 20 23 23 26 28 24 16 9 22 34 37 41 41 42 43 42 40 38 36 32 27 24 21 20 19 17 16 17 17 17 16 17 15 12 11
6 7 7 5 7 4 6 5 7 5 6 9 13 15 17 19 21 25 29 30 29 21 17 19 33 41 44 48 47 47 43 40 37 32 29 24 22 20 19 17 16 17 17 16 14 15 15 12 10
4 4 3 2 4 7 10 10 8 6 5 7 10 13 15 16 18 20 24 27 29 32 28 21 18 25 33 43 49 50 46 43 38 33 31 28 25 22 19 17 15 18 18 20 17 15 13 11 10
4 5 7 8 7 9 6 8 5 8 7 7 7 10 13 16 17 18 23 27 29 31 33 32 23 15 17 25 39 47 47 46 41 32 32 32 29 25 22 18 15 20 20 21 20 17 14 12 10
9 10 8 12 11 10 4 7 7 8 9 6 7 8 11 16 18 19 20 20 23 25 27 28 31 21 11 16 24 34 41 46 44 40 34 35 32 26 25 22 18 19 21 22 21 18 16 15 13
5 7 2 3 2 5 5 4 4 7 6 5 7 9 13 14 16 17 18 19 20 21 23 24 24 25 19 13 17 26 34 41 41 43 39 35 33 29 29 27 24 23 24 24 23 23 21 18 15
1 3 3 2 6 10 5 6 4 14 7 3 5 8 10 13 15 16 17 19 18 18 19 18 18 19 19 20 13 16 25 31 38 43 41 37 37 34 32 32 30 28 27 28 27 25 23 21 18
2 2 3 1 3 7 11 4 6 11 6 3 2 4 8 11 13 14 15 17 18 17 18 17 18 18 17 15 14 16 14 24 34 37 40 38 37 38 39 38 36 35 35 34 33 31 28 24 22
7 4 3 5 5 1 3 3 7 7 5 1 2 4 7 9 10 11 12 14 15 16 17 18 17 17 19 17 15 15 14 15 17 27 33 34 35 37 40 42 42 39 42 41 40 38 35 32 28
Wind_Direction
167 179 159 159 237 270 40 61 289 170 186 202 156 184 219 337 245 68 201 168 172 174 161 163 168 164 165 167 167 169 165 159 153 148 144 140 136 132 131 132 133 133 132 130 124 109 95 93 79
163 158 141 195 229 187 132 283 17 173 147 153 141 76 202 272 228 314 150 165 172 176 170 167 170 168 165 169 170 170 166 161 156 151 146 142 138 135 134 136 140 141 138 135 130 113 95 89 80
158 159 181 179 171 192 251 228 343 300 199 190 177 208 219 213 162 141 158 167 174 178 176 169 170 171 169 171 172 170 167 163 159 156 151 146 142 143 141 139 143 145 143 138 135 123 104 91 78
153 137 63 227 153 196 262 322 270 222 202 196 173 190 242 192 153 159 159 167 176 180 176 172 173 175 174 173 173 172 170 168 163 158 157 154 153 150 148 149 153 157 156 154 151 136 116 100 84
148 126 138 147 192 266 258 284 269 237 200 170 194 146 225 183 164 162 174 174 179 182 178 174 175 177 177 176 177 177 173 169 167 164 163 163 161 157 158 157 159 162 171 174 173 153 134 109 85
114 123 173 164 197 259 285 287 281 232 210 158 208 247 145 174 178 174 178 172 179 184 179 178 176 179 179 181 181 180 177 175 174 171 170 171 170 169 163 164 164 173 188 192 195 177 162 129 93
137 163 137 153 170 258 343 337 218 246 214 198 212 255 132 165 183 173 170 179 180 183 183 182 183 181 184 186 187 187 183 182 180 181 179 178 182 182 180 175 178 183 194 206 212 214 198 186 121
122 104 144 200 177 87 355 355 325 211 226 223 200 271 128 185 174 173 171 179 181 185 187 188 187 185 186 189 193 193 192 191 191 191 190 191 195 197 197 194 192 192 196 212 220 229 232 231 223
131 140 183 187 199 357 347 352 10 303 215 184 196 252 294 182 175 175 172 176 182 187 191 191 192 195 193 194 194 199 201 201 203 201 201 207 210 211 211 211 209 207 205 213 218 229 232 241 248
156 197 195 202 244 313 323 326 331 293 214 206 218 247 277 177 178 181 177 182 187 190 193 195 198 199 200 198 200 202 205 209 210 210 212 215 219 223 221 221 219 220 217 217 221 225 233 235 233
159 217 192 227 250 284 310 310 342 211 221 236 225 225 224 181 186 185 187 191 194 195 199 200 202 202 204 204 206 209 210 215 216 216 222 223 224 227 230 229 229 226 225 223 225 228 236 233 238
210 241 228 279 256 281 286 301 313 197 264 206 246 246 210 189 186 192 196 197 201 201 204 205 205 207 209 211 212 215 216 218 219 220 222 230 230 233 236 241 241 237 234 232 231 233 240 249 248
208 233 215 260 273 260 260 258 291 266 238 223 268 232 210 196 198 204 202 205 204 207 209 209 208 207 210 214 216 217 218 220 223 226 229 232 236 239 242 245 244 243 241 235 236 239 236 242 250
185 253 277 273 265 223 212 264 188 244 238 251 237 206 222 211 215 219 213 207 207 210 214 215 215 214 213 214 218 220 223 223 223 227 232 237 241 243 246 247 245 240 240 236 239 250 248 238 243
185 285 294 228 232 240 177 172 218 223 229 235 243 244 223 217 224 230 233 222 220 223 221 222 225 224 224 224 224 223 222 225 223 228 234 238 241 243 246 250 242 237 240 242 245 252 261 251 245
239 204 257 188 195 62 215 239 238 241 231 234 227 224 235 234 234 238 241 239 234 237 237 229 231 233 229 228 225 224 224 227 224 227 235 238 242 243 247 253 240 235 242 249 245 250 257 258 242
39 241 208 292 44 106 223 237 240 281 278 256 238 238 235 240 238 236 240 242 244 241 243 241 238 239 237 233 229 226 223 230 231 231 240 242 244 245 249 256 240 233 241 251 246 245 248 259 255
127 147 219 267 156 306 211 258 312 352 1 329 1 307 304 285 287 269 251 242 242 241 243 246 245 243 241 242 234 232 229 231 237 236 245 246 247 247 248 254 247 236 239 263 247 240 244 247 247
221 225 257 265 231 267 206 259 35 53 66 63 59 45 27 353 309 283 260 247 245 242 240 246 250 247 243 233 234 235 234 232 239 239 247 243 249 253 251 249 249 249 254 256 228 223 246 246 234
213 246 257 278 227 213 178 172 71 57 58 65 68 59 40 32 35 24 284 249 249 249 247 247 246 244 238 230 226 233 231 236 239 246 240 238 248 249 247 250 247 245 245 231 227 237 234 237 237
239 230 219 261 123 159 151 188 142 78 65 58 50 49 45 37 26 25 28 12 258 248 248 246 248 243 234 228 226 231 232 233 233 241 241 242 242 239 241 246 246 240 231 221 241 233 227 238 234
253 211 212 188 188 205 231 201 133 118 83 59 45 37 29 26 27 26 24 22 9 309 252 244 239 242 239 231 229 230 231 228 225 233 235 236 232 227 232 243 244 232 223 228 224 216 227 215 206
251 176 210 200 206 195 182 227 144 206 86 58 46 42 37 31 26 24 26 25 21 8 336 269 247 245 238 236 231 232 231 232 231 234 235 229 221 216 232 240 238 226 214 205 201 203 196 197 205
114 140 90 102 180 227 205 225 177 180 132 90 70 43 28 24 24 24 24 24 23 27 16 347 288 258 249 239 235 234 233 231 231 231 230 223 216 213 226 235 232 220 216 205 201 195 197 202 207
185 198 222 223 217 250 179 208 34 131 105 82 43 30 28 28 22 17 18 18 19 20 26 21 360 304 256 243 242 240 237 236 237 234 228 219 216 210 217 223 225 215 211 203 200 199 200 203 203
201 218 234 251 246 252 164 208 157 119 102 71 51 33 32 33 26 22 17 13 12 14 21 24 21 4 310 259 247 244 241 237 236 242 235 222 216 216 211 212 216 209 203 199 200 202 203 204 206
156 213 352 173 63 246 182 103 127 134 102 70 44 35 23 18 18 17 15 11 7 6 11 20 26 24 5 307 264 250 245 241 240 240 241 237 223 224 222 216 217 216 210 207 206 207 206 208 211
60 86 195 196 234 242 204 200 185 180 146 99 44 23 13 10 9 9 6 3 0 359 360 3 12 15 20 17 337 280 257 249 244 243 244 242 233 227 231 227 223 224 221 214 211 212 213 216 219
5 152 65 327 305 264 253 214 127 149 138 123 56 22 8 3 1 1 358 357 356 353 354 355 355 354 350 354 357 356 319 269 257 251 248 248 239 237 233 237 235 231 227 224 220 218 217 220 224
296 264 207 237 246 108 310 248 143 131 143 170 0 0 357 354 349 353 1 0 353 351 352 354 348 341 343 346 342 336 332 336 291 256 253 250 243 242 241 242 245 240 237 234 228 224 222 223 225